Location: Niagara
(43.2500°N, 79.0670°W)
Time: 13:28:23
(UTC-05:00)

Vanguard 1 Rocket - Visible Passes

Search period start: 18 February 2018 00:00
Search period end: 28 February 2018 00:00
Orbit: 655 x 4222 km, 34.3° (Epoch: 17 February)

Date Brightness Start Highest point End Pass type
(mag) Time Alt. Az. Time Alt. Az. Time Alt. Az.
18 Feb 10.8 01:07:22 42° ESE 01:07:22 42° ESE 01:19:34 10° E visible
18 Feb 10.3 03:24:37 60° SW 03:28:31 65° SSW 03:47:15 10° ESE visible
18 Feb 10.5 05:41:53 19° W 05:57:33 41° SW 06:11:07 10° SSE visible
18 Feb 10.8 20:57:47 10° S 21:05:22 24° SSE 21:05:22 24° SSE visible
18 Feb 11.3 23:20:21 10° SW 23:59:55 23° E 00:05:56 10° E visible
19 Feb 10.4 02:17:11 64° SSE 02:17:11 64° SSE 02:35:15 10° ESE visible
19 Feb 10.4 04:34:26 37° WSW 04:44:45 53° SSW 05:01:03 10° SE visible
19 Feb 10.9 19:50:38 10° SSE 19:58:42 17° SE 19:58:42 17° SE visible
19 Feb 10.8 22:09:14 10° SSW 22:52:31 - E 22:16:03 29° SSW visible
20 Feb 10.8 01:09:47 44° ESE 01:09:47 44° ESE 01:22:25 10° E visible
20 Feb 10.3 03:27:02 58° SW 03:30:54 62° SSW 03:50:01 10° ESE visible
20 Feb 10.6 05:44:18 18° W 05:59:31 35° SW 06:13:14 10° SSE visible
20 Feb 10.6 20:59:19 10° SSW 21:09:26 32° SSE 21:09:26 32° SSE visible
20 Feb 11.1 23:22:50 10° SW 00:02:25 24° E 00:08:45 10° E visible
21 Feb 10.4 02:19:42 63° SSE 02:19:42 63° SSE 02:38:04 10° ESE visible
21 Feb 10.5 04:36:58 35° WSW 04:46:53 48° SSW 05:03:29 10° SE visible
21 Feb 10.8 19:51:03 10° S 20:02:42 23° SE 20:02:50 23° SE visible
21 Feb 10.6 22:11:30 10° SW 22:55:08 - E 22:20:11 36° SSW visible
22 Feb 10.8 01:12:25 44° ESE 01:12:25 44° ESE 01:25:14 10° E visible
22 Feb 10.4 03:29:41 56° SW 03:33:12 58° SSW 03:52:39 10° SE visible
22 Feb 10.8 05:46:58 17° W 06:01:22 30° SW 06:14:59 10° S visible
22 Feb 11.0 18:47:53 10° SE 18:51:37 11° ESE 18:55:44 10° ESE visible
22 Feb 10.4 21:01:15 10° SSW 21:13:35 39° SSE 21:13:35 39° SSE visible
22 Feb 11.0 23:25:29 10° WSW 00:05:12 24° E 00:11:30 10° E visible
23 Feb 10.4 02:22:29 61° SSE 02:22:29 61° SSE 02:40:48 10° ESE visible
23 Feb 10.6 04:39:46 34° WSW 04:48:54 43° SW 05:05:41 10° SSE visible
23 Feb 10.6 19:52:17 10° S 20:04:27 28° SE 20:07:00 27° ESE visible
23 Feb 10.4 22:14:00 10° SW 22:58:03 - E 22:24:21 44° SSW visible
24 Feb 10.8 00:40:41 10° WSW 01:15:20 43° ESE 01:27:58 10° ESE visible
24 Feb 10.4 03:32:38 52° SW 03:35:23 54° SSW 03:55:05 10° SE visible
24 Feb 10.9 05:49:56 15° W 06:03:05 25° SW 06:16:15 10° S visible
24 Feb 10.8 18:45:49 10° SSE 18:53:18 15° ESE 19:00:23 12° E visible
24 Feb 10.2 21:03:29 10° SSW 21:17:44 46° SSE 21:17:44 46° SSE visible
24 Feb 10.8 23:28:16 10° WSW 00:08:17 23° E 00:14:13 10° E visible
25 Feb 10.5 02:25:35 57° SSE 02:25:35 57° SSE 02:43:23 10° ESE visible
25 Feb 10.7 04:42:53 31° WSW 04:50:46 37° SW 05:07:34 10° SSE visible
25 Feb 10.4 19:54:03 10° SSW 20:06:19 33° SE 20:11:05 30° ESE visible
25 Feb 10.3 22:16:40 10° SW 23:01:19 - E 22:28:25 51° SSW visible
26 Feb 10.9 00:43:33 10° W 01:18:37 40° ESE 01:30:38 10° ESE visible
26 Feb 10.5 03:35:56 48° SW 03:37:27 49° SSW 03:57:18 10° SE visible
26 Feb 11.1 05:53:15 13° W 06:04:43 20° SW 06:16:46 10° SSW visible
26 Feb 10.6 18:46:17 10° SSE 18:55:05 20° SE 19:04:23 13° E visible
26 Feb 10.1 21:05:57 10° SW 21:20:42 51° SSE 21:21:42 50° SE visible
26 Feb 10.7 23:31:08 10° WSW 00:11:45 21° ESE 00:16:52 10° ESE visible
27 Feb 10.6 02:29:04 52° SSE 02:29:04 52° SSE 02:45:48 10° SE visible
27 Feb 10.8 04:46:23 29° WSW 04:52:32 32° SW 05:09:04 10° S visible
27 Feb 10.2 19:56:10 10° SSW 20:08:20 38° SE 20:14:57 31° ESE visible
27 Feb 10.2 22:19:30 10° WSW 23:04:57 - E 22:32:17 57° SSW visible
